FW1247 Weather Reports


time (UTC)temp
C
wind
direction
speed
KPH
gust
KPH
rain 1hr
cm
rain 24hr
cm
rain mn
cm
humidity
%
barometer
mb
20260507093056 17 80 11.3 19.3 0.00 0.00 0.00 49 1012.8
20260507091553 16 43 8.0 17.7 0.00 0.00 0.00 54 1012.8
20260507090050 16 36 6.4 17.7 0.00 0.00 0.00 56 1012.6
20260507084556 15 67 6.4 16.1 0.00 0.00 0.00 58 1012.5
20260507083044 16 44 4.8 16.1 0.00 0.00 0.00 55 1012.4
20260507081543 15 339 4.8 14.5 0.00 0.00 0.00 62 1012.4
20260507080037 13 319 1.6 9.7 0.00 0.00 0.00 66 1012.3
20260507074533 14 26 4.8 12.9 0.00 0.00 0.00 61 1012.2
20260507073029 13 19 3.2 16.1 0.00 0.00 0.00 64 1012.1
20260507071524 13 58 4.8 14.5 0.00 0.00 0.00 66 1012.2
20260507070028 13 5 4.8 16.1 0.00 0.00 0.00 66 1012.1
20260507064515 12 35 4.8 14.5 0.00 0.00 0.00 71 1012.0
20260507063010 11 30 4.8 14.5 0.00 0.00 0.00 73 1012.0
20260507061507 11 48 8.0 16.1 0.00 0.00 0.00 74 1011.9
20260507060004 10 35 4.8 14.5 0.00 0.00 0.00 76 1011.9
20260507054558 10 30 4.8 14.5 0.00 0.00 0.00 78 1011.8
20260507053053 9 73 4.8 11.3 0.00 0.00 0.00 80 1011.7
20260507051549 8 12 1.6 4.8 0.00 0.00 0.00 86 1011.5
20260507050046 6 35 0.0 4.8 0.00 0.00 0.00 89 1011.4
20260507044544 5 15 1.6 3.2 0.00 0.00 0.00 89 1011.3
20260507043040 5 12 0.0 3.2 0.00 0.00 0.00 89 1011.2
20260507041537 4 12 0.0 3.2 0.00 0.00 0.00 89 1011.1
20260507040036 3 12 1.6 3.2 0.00 0.00 0.00 89 1011.0
20260507034531 3 12 1.6 4.8 0.00 0.00 0.00 88 1010.9
20260507033031 4 21 0.0 1.6 0.00 0.00 0.00 88 1010.6
20260507031528 4 21 1.6 3.2 0.00 0.00 0.00 87 1010.4
20260507030025 4 21 1.6 4.8 0.00 0.00 0.00 87 1010.4
20260507024522 4 22 1.6 4.8 0.00 0.00 0.00 87 1010.4
20260507023020 5 22 0.0 3.2 0.00 0.00 0.00 86 1010.2
20260507021523 5 22 1.6 4.8 0.00 0.00 0.00 86 1010.1
20260507020018 5 22 1.6 6.4 0.00 0.00 0.00 85 1010.2
20260507014526 5 30 3.2 8.0 0.00 0.00 0.00 85 1010.1
20260507013028 6 351 1.6 4.8 0.00 0.00 0.00 84 1010.2
20260507011513 6 351 1.6 4.8 0.00 0.00 0.00 83 1010.1
20260507010010 6 72 3.2 6.4 0.00 0.00 0.00 83 1010.0
20260507004505 6 91 4.8 12.9 0.00 0.00 0.00 83 1009.8
20260507003004 6 55 3.2 8.0 0.00 0.00 0.00 82 1009.7
20260507001504 7 72 4.8 16.1 0.00 0.00 0.00 82 1009.5
20260506234559 7 83 4.8 12.9 0.00 0.00 0.00 82 1009.5
20260506233111 7 67 8.0 16.1 0.00 0.00 0.00 83 1009.6
20260506231601 7 82 4.8 14.5 0.00 0.00 0.00 83 1009.5
20260506230055 7 66 6.4 12.9 0.00 0.00 0.00 84 1009.6
20260506224553 7 32 3.2 9.7 0.00 0.00 0.00 83 1009.6
20260506223053 7 55 4.8 16.1 0.00 0.00 0.00 83 1009.4
20260506221549 7 63 3.2 9.7 0.00 0.00 0.00 83 1009.4
20260506220046 7 49 4.8 11.3 0.00 0.00 0.00 83 1009.4
20260506214544 7 61 6.4 19.3 0.00 0.00 0.00 83 1009.2
20260506213057 7 71 6.4 14.5 0.00 0.00 0.00 83 1009.2
20260506211540 7 61 6.4 17.7 0.00 0.00 0.00 83 1009.1
20260506210041 7 62 6.4 16.1 0.00 0.00 0.00 82 1009.2
20260506204539 7 74 11.3 19.3 0.00 0.00 0.00 82 1009.0
20260506203037 7 82 8.0 22.5 0.00 0.00 0.00 82 1009.0
20260506201536 7 79 6.4 20.9 0.00 0.00 0.00 82 1009.0
20260506200034 7 74 11.3 24.1 0.00 0.00 0.00 82 1008.8
20260506194532 7 94 16.1 22.5 0.00 0.00 0.00 82 1008.8
20260506193031 7 77 12.9 22.5 0.00 0.00 0.00 82 1008.7
20260506191529 7 74 14.5 25.7 0.00 0.00 0.00 83 1008.8
20260506190028 7 80 8.0 20.9 0.00 0.00 0.00 82 1008.7
20260506184540 7 65 14.5 27.4 0.00 0.00 0.00 82 1008.5
20260506183036 7 71 14.5 22.5 0.00 0.00 0.00 82 1008.3
20260506181526 7 91 11.3 25.7 0.00 0.00 0.00 81 1008.2
20260506180020 8 69 14.5 25.7 0.00 0.00 0.00 80 1008.1
20260506174521 8 88 8.0 27.4 0.00 0.00 0.00 80 1008.0
20260506173016 8 90 12.9 33.8 0.00 0.00 0.00 78 1007.9
20260506171514 8 61 19.3 32.2 0.00 0.00 0.00 76 1007.8
20260506170013 8 74 20.9 35.4 0.00 0.00 0.00 75 1007.6
20260506164511 9 61 20.9 30.6 0.00 0.00 0.00 75 1007.5
20260506163010 10 69 14.5 30.6 0.00 0.00 0.00 74 1007.5
20260506161610 10 64 19.3 30.6 0.00 0.00 0.00 72 1007.3
20260506160011 10 65 14.5 30.6 0.00 0.00 0.00 75 1007.2
20260506154508 10 73 16.1 27.4 0.00 0.00 0.00 75 1007.3
20260506153017 11 83 16.1 29.0 0.00 0.00 0.00 75 1007.1
20260506151507 11 67 19.3 29.0 0.00 0.00 0.00 73 1007.2
20260506150006 11 64 20.9 29.0 0.00 0.00 0.00 74 1007.0
20260506144513 11 76 16.1 27.4 0.00 0.00 0.00 75 1006.9
20260506143004 12 57 14.5 32.2 0.00 0.00 0.00 73 1006.8
20260506141501 12 81 9.7 25.7 0.00 0.00 0.00 73 1006.8
20260506140106 12 71 17.7 30.6 0.00 0.00 0.00 69 1006.7
20260506134556 12 95 16.1 24.1 0.00 0.00 0.00 67 1006.6
20260506133055 13 74 17.7 25.7 0.00 0.00 0.00 64 1006.6
20260506131555 13 55 17.7 29.0 0.00 0.00 0.00 61 1006.5
20260506130051 13 20 17.7 30.6 0.00 0.00 0.00 63 1006.3
20260506124550 14 61 11.3 24.1 0.00 0.00 0.00 61 1006.3
20260506123049 13 67 16.1 25.7 0.00 0.00 0.00 63 1006.2
20260506121548 13 69 16.1 27.4 0.00 0.00 0.00 60 1006.1
20260506120047 14 51 16.1 29.0 0.00 0.00 0.00 63 1006.0
20260506114546 13 83 8.0 27.4 0.00 0.00 0.00 65 1006.1
20260506113045 13 5 14.5 29.0 0.00 0.00 0.00 67 1006.1
20260506111545 13 69 14.5 27.4 0.00 0.00 0.00 69 1006.1
20260506110044 13 66 12.9 27.4 0.00 0.00 0.00 65 1006.1
20260506104543 15 36 9.7 24.1 0.00 0.00 0.00 66 1006.1
20260506103050 15 321 11.3 22.5 0.00 0.00 0.00 63 1006.1
20260506101538 14 14 11.3 24.1 0.00 0.00 0.00 63 1006.1
20260506100038 15 10 9.7 22.5 0.00 0.00 0.00 62 1006.0
20260506094535 14 50 12.9 20.9 0.00 0.00 0.00 61 1006.0